Location: Liberty
(32.6612°N, 88.7589°W)
Time: 08:16:16
(UTC+00:00)

X-37B - Visible Passes

Search period start: 23 September 2023 00:00
Search period end: 03 October 2023 00:00
Orbit: 277 x 277 km, 45.0° (Epoch: 01 November)

Date Brightness Start Highest point End Pass type
(mag) Time Alt. Az. Time Alt. Az. Time Alt. Az.
27 Sep 2.7 10:24:00 13° N 10:24:47 15° NNE 10:26:18 10° ENE visible
28 Sep 1.9 10:25:08 23° N 10:25:36 24° NNE 10:27:41 10° E visible
29 Sep 0.6 10:26:23 50° NE 10:26:23 50° NE 10:28:44 10° ESE visible
30 Sep 1.1 10:27:48 35° SSE 10:27:48 35° SSE 10:29:26 10° SE visible
01 Oct 2.7 10:29:23 12° SSE 10:29:23 12° SSE 10:29:41 10° SSE visible
